Location: Choisy
(48.7685°N, 2.4187°E)
Time: 13:06:17
(UTC+00:00)

ATLAS 3B R/B - Pass Details

Date: 05 June 2022
Orbit: 976 x 1218 km, 63.8° (Epoch: 20 June)

Event Time Altitude Azimuth Distance (km) Brightness Sun altitude
Rises 20:26:36 0° 316° (NW) 3,974 8.7 -5.6°
Reaches altitude 10° 20:29:23 10° 310° (NW) 3,045 6.9 -5.9°
Maximum altitude 20:36:08 42° 243° (WSW) 1,628 3.9 -6.7°
Drops below altitude 10° 20:43:08 10° 175° (S) 3,147 4.7 -7.5°
Enters shadow 20:45:18 - 170° (S) 3,860 5.1 -7.7°
